Location: Darlington Observatory
(36.4817°N, 105.8156°W)
Time: 12:03:18
(UTC-07:00)

MOS 1 - Visible Passes

Search period start: 26 February 2017 00:00
Search period end: 08 March 2017 00:00
Orbit: 880 x 891 km, 99.3° (Epoch: 26 February)

Date Brightness Start Highest point End Pass type
(mag) Time Alt. Az. Time Alt. Az. Time Alt. Az.
26 Feb 6.7 05:42:22 10° NE 05:47:08 27° E 05:51:53 10° SSE visible
26 Feb 7.1 18:53:09 10° SW 18:57:26 22° W 19:01:45 10° NW visible
27 Feb 6.7 05:40:41 10° NE 05:45:23 26° E 05:50:04 10° SSE visible
27 Feb 7.0 18:51:18 10° SW 18:55:41 23° W 19:00:05 10° NW visible
28 Feb 6.8 05:39:00 10° NE 05:43:39 25° E 05:48:15 10° SSE visible
28 Feb 6.9 18:49:28 10° SSW 18:53:56 24° W 18:58:26 10° NW visible
01 Mar 6.9 05:37:21 10° NE 05:41:53 24° E 05:46:24 10° SSE visible
01 Mar 6.9 18:47:38 10° SSW 18:52:11 25° W 18:56:46 10° NW visible
02 Mar 7.0 05:35:40 10° NE 05:40:08 24° E 05:44:35 10° SSE visible
02 Mar 6.8 18:45:48 10° SSW 18:50:26 26° W 18:55:06 10° NW visible
03 Mar 7.0 05:34:01 10° NE 05:38:24 23° E 05:42:44 10° SE visible
03 Mar 6.8 18:43:59 10° SSW 18:48:42 27° W 18:53:26 10° NW visible
04 Mar 7.1 05:32:22 10° NE 05:36:38 22° E 05:40:54 10° SE visible
04 Mar 6.7 18:42:11 10° SSW 18:46:57 28° W 18:51:45 10° NW visible
05 Mar 7.2 05:30:43 10° NE 05:34:54 21° E 05:39:03 10° SE visible
05 Mar 6.6 18:40:21 10° SSW 18:45:12 29° W 18:50:05 10° NW visible
06 Mar 7.2 05:29:05 10° NE 05:33:09 20° E 05:37:11 10° SE visible
06 Mar 6.6 18:38:33 10° SSW 18:43:28 30° W 18:48:24 10° NW visible
07 Mar 7.3 05:27:26 10° NE 05:31:24 19° E 05:35:20 10° SE visible
07 Mar 6.5 18:36:44 10° SSW 18:41:43 31° W 18:46:43 10° NW visible
